Location: Jastew
(49.9666°N, 20.6833°E)
Time: 16:34:10
(UTC+01:00)

ISS - Visible Passes

Search period start: 20 November 2017 00:00
Search period end: 30 November 2017 00:00
Orbit: 402 x 407 km, 51.6° (Epoch: 21 November)

Date Brightness Start Highest point End Pass type
(mag) Time Alt. Az. Time Alt. Az. Time Alt. Az.
27 Nov -1.2 17:34:45 10° SSE 17:34:58 10° SSE 17:34:58 10° SSE visible
28 Nov -1.3 18:16:35 10° SW 18:17:35 17° SSW 18:17:35 17° SSW visible
29 Nov -2.2 17:24:44 10° SSW 17:27:20 22° SE 17:27:28 22° SE visible
